Mt. Clemens, MI

4:35 PM EDT on May 25, 2017 (GMT -0400)
Selfridge Angb

Weather History for KMTC - October, 2012

Change the Weather History Date:

Saturday, October 27, 2012

  Actual Average Record
Temperature  
Mean Temperature 46 °F -  
Max Temperature 51 °F 57 °F 73 °F (1996)
Min Temperature 42 °F 38 °F 23 °F (1962)
Degree Days  
Heating Degree Days 18    
Moisture  
Dew Point 35 °F    
Average Humidity 67    
Maximum Humidity 81    
Minimum Humidity 57    
Precipitation  
Precipitation 0.00 in - - ()
Sea Level Pressure  
Sea Level Pressure 30.19 in    
Wind  
Wind Speed 14 mph (North)    
Max Wind Speed 18 mph    
Max Gust Speed 26 mph    
Visibility 11 miles    
Events      
Averages and records for this station are not official NWS values.
T = Trace of Precipitation, MM = Missing Value Source: NWS Daily Summary

Daily Weather History Graph

Daily Weather History Graph

Search for Another Location

Airport or City:

Trip Planner

Search our weather history database for the weather conditions in past years. The results will help you decide how hot, cold, wet, or windy it might be!

Date:

Astronomy

Oct. 27, 2012 Rise Set
Actual Time 7:59 AM EDT 6:30 PM EDT
Civil Twilight 7:30 AM EDT 6:59 PM EDT
Nautical Twilight 6:57 AM EDT 7:32 PM EDT
Astronomical Twilight 6:24 AM EDT 8:04 PM EDT
Moon 5:16 PM EDT (10/27) 5:51 AM EDT (10/27)
Length of Visible Light 11h 28m
Length of Day
10h 30m
Waxing Gibbous, 96% of the Moon is Illuminated
Oct 27
Waxing Gibbous
Oct 29
Full
Nov 6
Last Quarter
Nov 13
New
Nov 20
First Quarter

Hourly Weather History & Observations

Time (EDT) Temp. Windchill Dew Point Humidity Pressure Visibility Wind Dir Wind Speed Gust Speed Precip Events Conditions
4:18 AM 44.6 °F 39.2 °F 35.6 °F 71% 30.15 in 12.0 mi North 10.4 mph - N/A   Mostly Cloudy
4:55 AM 44.6 °F 37.4 °F 35.6 °F 71% 30.18 in 12.0 mi North 16.1 mph - N/A   Mostly Cloudy
5:55 AM 42.8 °F 34.8 °F 35.6 °F 76% 30.18 in 12.0 mi North 17.3 mph - N/A   Mostly Cloudy
6:55 AM 42.8 °F 35.8 °F 35.6 °F 76% 30.18 in 12.0 mi North 13.8 mph - N/A   Mostly Cloudy
7:55 AM 42.8 °F 35.8 °F 35.6 °F 76% 30.19 in 12.0 mi NNW 13.8 mph - N/A   Mostly Cloudy
8:55 AM 42.8 °F 35.8 °F 37.4 °F 81% 30.20 in 12.0 mi NNW 13.8 mph - N/A   Mostly Cloudy
9:55 AM 44.6 °F 38.1 °F 37.4 °F 76% 30.19 in 12.0 mi North 13.8 mph - N/A   Mostly Cloudy
10:55 AM 46.4 °F 40.1 °F 37.4 °F 71% 30.20 in 12.0 mi North 15.0 mph - N/A   Mostly Cloudy
11:55 AM 48.2 °F - 39.2 °F 71% 30.19 in 12.0 mi North 17.3 mph 23.0 mph N/A   Mostly Cloudy
12:55 PM 50.0 °F - 39.2 °F 66% 30.19 in 12.0 mi North 16.1 mph - N/A   Overcast
1:55 PM 51.8 °F - 37.4 °F 58% 30.17 in 12.0 mi North 18.4 mph - N/A   Overcast
2:55 PM 50.0 °F - 35.6 °F 58% 30.15 in 12.0 mi North 17.3 mph 24.2 mph N/A   Overcast
3:55 PM 50.0 °F - 35.6 °F 58% 30.15 in 12.0 mi NNE 18.4 mph 26.5 mph N/A   Mostly Cloudy
4:55 PM 48.2 °F - 33.8 °F 58% 30.17 in 12.0 mi North 12.7 mph - N/A   Mostly Cloudy
5:55 PM 48.2 °F - 33.8 °F 58% 30.18 in 10.0 mi North 15.0 mph - N/A   Overcast
6:55 PM 46.4 °F 41.1 °F 32.0 °F 57% 30.19 in 10.0 mi North 11.5 mph 19.6 mph N/A   Overcast
7:55 PM 44.6 °F 38.1 °F 32.0 °F 61% 30.22 in 10.0 mi North 13.8 mph 23.0 mph N/A   Overcast
8:55 PM 44.6 °F 38.4 °F 32.0 °F 61% 30.21 in 10.0 mi North 12.7 mph - N/A   Overcast
9:55 PM 42.8 °F 36.2 °F 33.8 °F 70% 30.21 in 10.0 mi North 12.7 mph - N/A   Overcast
10:55 PM 42.8 °F 36.6 °F 32.0 °F 66% 30.21 in 10.0 mi North 11.5 mph - N/A   Overcast